User: anonymous   Login
Location: The Top Of The Sky Mini Observatory
(41.4300°N, 81.2300°W)
Time: 15:12:30
(UTC-05:00)
Language:

Iridium 86 - Orbit

View from above orbital plane
View from above orbital plane
View from above satellite
View from above satellite

Ground track
Ground track

The orbit data is extracted from the following two-line orbital elements,

1 25528U 98066B   14330.47091997  .00000502  00000-0  17211-3 0  2465
2 25528 086.3964 020.1682 0002376 114.6884 245.4560 14.34222286845534
Epoch (UTC): 26 November 2014 11:18:07
Eccentricity: 0.0002376
inclination: 86.3964°
perigee height: 776 km
apogee height: 779 km
right ascension of ascending node: 20.1682°
argument of perigee: 114.6884°
revolutions per day: 14.34222286
mean anomaly at epoch: 245.4560°
orbit number at epoch: 84553

The dashed part of the orbit path shows where the satellite is in the earth's shadow,  

DLR